Location: ????? ??????
(37.8317°N, 23.8750°E)
Time: 12:12:02
(UTC+00:00)

Cosmos 1703 - Pass Details

Date: 20 January 2021
Orbit: 524 x 538 km, 82.5° (Epoch: 04 March)

Event Time Altitude Azimuth Distance (km) Brightness Sun altitude
Rises 17:22:50 0° 191° (S) 2,652 7.1 -21.2°
Reaches altitude 10° 17:24:59 10° 193° (SSW) 1,765 6.2 -21.6°
Maximum altitude 17:28:50 71° 278° (W) 560 3.4 -22.3°
Enters shadow 17:30:11 39° 351° (N) 808 4.1 -22.6°
